Total_Precipitation_Accumulation
0.00 0.00 0.01 0.01 0.01 0.00 0.00 0.01 0.01 0.01 0.03 0.05 0.08 0.15 0.22 0.28 0.31 0.32 0.16 0.17 0.10 0.02 0.00 0.00 0.00 0.00 0.00 0.00 0.00 0.01 0.01 0.03 0.05 0.02 0.01 0.03 0.04 0.06 0.09 0.03 0.03 0.02 0.12
0.00 0.00 0.01 0.01 0.00 0.00 0.00 0.01 0.02 0.01 0.02 0.03 0.06 0.10 0.17 0.25 0.39 0.26 0.21 0.21 0.11 0.02 0.01 0.00 0.00 0.00 0.00 0.00 0.00 0.00 0.05 0.03 0.01 0.01 0.00 0.00 0.00 0.00 0.00 0.01 0.02 0.02 0.03
0.05 0.10 0.05 0.01 0.00 0.00 0.00 0.00 0.01 0.01 0.02 0.06 0.02 0.00 0.01 0.03 0.11 0.25 0.16 0.06 0.04 0.00 0.00 0.00 0.04 0.01 0.00 0.00 0.00 0.01 0.04 0.02 0.03 0.00 0.00 0.00 0.00 0.00 0.00 0.02 0.06 0.04 0.02
0.25 0.28 0.19 0.22 0.18 0.02 0.00 0.00 0.00 0.00 0.00 0.00 0.00 0.00 0.01 0.07 0.06 0.05 0.09 0.08 0.06 0.02 0.00 0.00 0.06 0.03 0.01 0.00 0.00 0.10 0.14 0.02 0.02 0.00 0.00 0.00 0.01 0.01 0.01 0.01 0.01 0.01 0.01
0.31 0.29 0.21 0.21 0.21 0.13 0.03 0.01 0.07 0.02 0.00 0.00 0.00 0.00 0.01 0.02 0.01 0.01 0.04 0.03 0.01 0.00 0.00 0.00 0.02 0.02 0.02 0.01 0.00 0.06 0.27 0.21 0.06 0.01 0.07 0.02 0.11 0.09 0.08 0.00 0.00 0.00 0.00
0.17 0.18 0.21 0.17 0.08 0.07 0.06 0.05 0.01 0.00 0.00 0.00 0.00 0.00 0.00 0.00 0.00 0.03 0.08 0.14 0.14 0.13 0.13 0.07 0.02 0.04 0.00 0.00 0.01 0.08 0.14 0.10 0.03 0.14 0.12 0.05 0.12 0.06 0.03 0.00 0.00 0.00 0.00
0.16 0.13 0.16 0.14 0.15 0.09 0.12 0.08 0.01 0.01 0.03 0.00 0.00 0.00 0.00 0.00 0.00 0.00 0.02 0.03 0.04 0.05 0.04 0.02 0.01 0.00 0.01 0.02 0.00 0.01 0.05 0.10 0.07 0.03 0.00 0.00 0.00 0.00 0.00 0.00 0.00 0.00 0.01
0.14 0.15 0.20 0.18 0.13 0.15 0.16 0.08 0.06 0.04 0.02 0.07 0.03 0.01 0.00 0.00 0.00 0.00 0.00 0.00 0.00 0.00 0.00 0.00 0.00 0.00 0.00 0.03 0.04 0.04 0.05 0.06 0.04 0.04 0.02 0.02 0.00 0.00 0.00 0.00 0.00 0.00 0.00
0.60 0.45 0.35 0.32 0.22 0.19 0.17 0.10 0.11 0.18 0.08 0.07 0.15 0.11 0.14 0.13 0.05 0.02 0.02 0.01 0.00 0.00 0.00 0.00 0.00 0.00 0.03 0.07 0.03 0.04 0.05 0.04 0.08 0.04 0.04 0.01 0.00 0.00 0.01 0.00 0.00 0.00 0.00
1.92 1.23 0.81 0.68 0.65 0.49 0.35 0.24 0.24 0.28 0.21 0.28 0.53 0.73 0.89 0.50 0.25 0.11 0.07 0.04 0.01 0.00 0.00 0.00 0.00 0.00 0.07 0.13 0.09 0.04 0.08 0.11 0.03 0.00 0.00 0.00 0.00 0.02 0.04 0.00 0.00 0.00 0.00
1.20 1.74 1.92 1.34 1.25 0.95 0.92 0.78 0.83 0.80 0.86 0.94 1.24 1.04 0.78 0.81 0.86 0.75 0.61 0.31 0.14 0.09 0.04 0.00 0.00 0.00 0.01 0.09 0.17 0.12 0.01 0.00 0.00 0.00 0.01 0.02 0.02 0.02 0.01 0.00 0.00 0.00 0.00
0.26 0.54 0.96 1.37 1.85 2.35 2.12 1.50 1.29 1.30 1.56 1.73 1.63 1.47 1.65 1.76 1.59 1.35 1.20 0.53 0.25 0.09 0.04 0.07 0.05 0.07 0.12 0.15 0.12 0.04 0.03 0.04 0.04 0.05 0.04 0.05 0.02 0.01 0.00 0.01 0.00 0.00 0.00
0.07 0.14 0.20 0.31 0.60 1.03 1.43 2.19 2.81 2.34 1.94 2.26 2.60 2.73 2.15 1.40 0.69 0.31 0.18 0.06 0.02 0.01 0.01 0.08 0.14 0.20 0.19 0.12 0.11 0.10 0.06 0.06 0.07 0.05 0.07 0.07 0.06 0.06 0.04 0.02 0.00 0.00 0.00
0.06 0.07 0.03 0.03 0.09 0.20 0.36 0.47 1.05 1.84 1.73 1.74 2.63 2.29 1.72 0.77 0.35 0.18 0.06 0.02 0.00 0.00 0.00 0.04 0.07 0.08 0.11 0.12 0.13 0.15 0.12 0.12 0.10 0.10 0.11 0.10 0.07 0.03 0.00 0.00 0.00 0.00 0.00
0.05 0.05 0.04 0.02 0.02 0.04 0.06 0.04 0.08 0.28 0.51 0.53 0.76 1.12 1.47 0.88 0.19 0.04 0.02 0.00 0.00 0.01 0.06 0.06 0.05 0.08 0.12 0.14 0.14 0.13 0.12 0.11 0.09 0.08 0.05 0.02 0.01 0.00 0.00 0.00 0.00 0.00 0.00
0.01 0.02 0.03 0.03 0.05 0.05 0.04 0.05 0.05 0.10 0.17 0.22 0.24 0.21 0.17 0.20 0.12 0.07 0.02 0.03 0.02 0.03 0.05 0.02 0.00 0.01 0.01 0.01 0.00 0.01 0.01 0.01 0.01 0.01 0.00 0.00 0.00 0.00 0.00 0.00 0.00 0.00 0.00
0.01 0.00 0.00 0.01 0.01 0.02 0.09 0.08 0.10 0.12 0.12 0.10 0.10 0.12 0.09 0.03 0.04 0.03 0.02 0.02 0.02 0.01 0.00 0.00 0.00 0.00 0.00 0.00 0.00 0.00 0.00 0.00 0.00 0.00 0.00 0.00 0.00 0.00 0.00 0.00 0.00 0.01 0.00
0.00 0.00 0.00 0.00 0.00 0.02 0.03 0.11 0.23 0.37 0.11 0.04 0.03 0.02 0.05 0.05 0.02 0.02 0.02 0.01 0.01 0.01 0.00 0.00 0.00 0.00 0.00 0.00 0.00 0.00 0.00 0.00 0.00 0.00 0.00 0.00 0.00 0.00 0.00 0.00 0.00 0.00 0.01
0.00 0.00 0.00 0.00 0.00 0.00 0.00 0.01 0.00 0.01 0.01 0.00 0.00 0.00 0.01 0.04 0.05 0.06 0.05 0.01 0.00 0.00 0.00 0.00 0.00 0.00 0.00 0.00 0.00 0.00 0.00 0.00 0.00 0.00 0.00 0.00 0.00 0.00 0.00 0.00 0.00 0.01 0.01
0.00 0.00 0.01 0.01 0.00 0.00 0.00 0.01 0.01 0.00 0.00 0.00 0.00 0.00 0.00 0.00 0.01 0.00 0.00 0.00 0.00 0.00 0.00 0.00 0.00 0.00 0.00 0.00 0.00 0.00 0.00 0.00 0.00 0.00 0.00 0.00 0.00 0.00 0.00 0.00 0.00 0.00 0.00
0.01 0.01 0.02 0.01 0.00 0.00 0.00 0.00 0.00 0.00 0.00 0.00 0.00 0.00 0.01 0.00 0.00 0.00 0.00 0.00 0.00 0.00 0.00 0.00 0.00 0.00 0.00 0.00 0.00 0.00 0.00 0.00 0.00 0.00 0.00 0.00 0.00 0.00 0.00 0.00 0.00 0.00 0.00
0.02 0.02 0.01 0.02 0.01 0.01 0.01 0.00 0.00 0.00 0.00 0.00 0.00 0.00 0.00 0.00 0.01 0.01 0.00 0.00 0.00 0.00 0.00 0.00 0.00 0.00 0.00 0.00 0.00 0.00 0.00 0.00 0.00 0.00 0.00 0.00 0.00 0.00 0.00 0.00 0.00 0.00 0.00
0.03 0.03 0.04 0.05 0.03 0.01 0.01 0.02 0.02 0.01 0.00 0.00 0.00 0.00 0.00 0.00 0.01 0.00 0.00 0.00 0.00 0.00 0.00 0.00 0.00 0.00 0.00 0.00 0.00 0.00 0.00 0.00 0.00 0.00 0.00 0.00 0.00 0.00 0.00 0.00 0.00 0.00 0.00
0.05 0.06 0.05 0.05 0.04 0.04 0.03 0.02 0.01 0.01 0.00 0.00 0.00 0.00 0.00 0.00 0.01 0.03 0.07 0.03 0.00 0.00 0.00 0.00 0.00 0.00 0.00 0.00 0.00 0.00 0.00 0.00 0.00 0.00 0.00 0.00 0.00 0.00 0.00 0.00 0.00 0.00 0.00
0.12 0.15 0.08 0.05 0.03 0.04 0.06 0.08 0.06 0.05 0.05 0.04 0.02 0.01 0.00 0.04 0.10 0.08 0.10 0.11 0.07 0.03 0.02 0.03 0.01 0.00 0.00 0.00 0.00 0.00 0.00 0.00 0.00 0.00 0.00 0.00 0.00 0.00 0.00 0.00 0.00 0.00 0.00
0.18 0.12 0.12 0.13 0.11 0.09 0.09 0.06 0.08 0.14 0.16 0.10 0.04 0.04 0.05 0.07 0.11 0.10 0.05 0.04 0.10 0.10 0.04 0.04 0.06 0.06 0.03 0.01 0.00 0.00 0.00 0.00 0.00 0.00 0.00 0.00 0.00 0.00 0.00 0.00 0.00 0.00 0.00